User: anonymous   Login
Location: Unspecified
(0.0000°N, 0.0000°E)
Time: 08:07:42
(UTC+00:00)
Language:

CP3 - Orbit

View from above orbital plane
View from above orbital plane
View from above satellite
View from above satellite

Ground track
Ground track

The orbit data is extracted from the following two-line orbital elements,

1 31129U 07012N   19345.78902817 +.00000072 +00000-0 +25946-4 0  9999
2 31129 098.1816 283.6421 0093939 256.1967 102.8764 14.56861359671602
Epoch (UTC): 11 December 2019 18:56:12
Eccentricity: 0.0093939
inclination: 98.1816°
perigee height: 637 km
apogee height: 770 km
right ascension of ascending node: 283.6421°
argument of perigee: 256.1967°
revolutions per day: 14.56861359
mean anomaly at epoch: 102.8764°
orbit number at epoch: 67160

The dashed part of the orbit path shows where the satellite is in the earth's shadow,  

DLR